This demonstration page uses our WeatherBlox Daily Observations layout. Learn more.

Left ArrowRight Arrow

39.51506, -84.39828

Hourly Observations for March 31, 2016

Temp ( °F °C ) Dew Point ( °F °C ) Humidity (%) Winds ( mph kmh ) Pressure ( in mb ) Visibility ( mi km ) Precip ( " mm )
12:15 am 00:15 Cloudy 69 20.8 44 6.7 40 40 S 8 13 29.80 1009 10 16 N/A
12:35 am 00:35 Cloudy 69 20.8 40 4.7 35 35 S 10 17 29.77 1008 10 16 N/A
12:55 am 00:55 Cloudy 69 20.8 41 5.2 36 36 SSW 9 15 29.80 1009 10 16 N/A
1:15 am 01:15 Cloudy with Light Rain 69 20.4 42 5.3 37 37 SSW 8 13 29.80 1009 10 16 N/A
1:35 am 01:35 Cloudy 64 18 41 5.2 43 43 SSW 8 13 29.77 1008 10 16 N/A
1:55 am 01:55 Cloudy 67 19.5 40 4.5 37 37 SSW 8 13 29.77 1008 10 16 N/A
2:15 am 02:15 Cloudy with Light Rain 65 18.3 40 4.6 41 41 S 14 22 29.77 1008 10 16 N/A
2:35 am 02:35 Cloudy with Light Rain 64 18 42 5.7 45 45 SSW 22 35 29.77 1008 10 16 N/A
2:55 am 02:55 Cloudy with Light Rain 64 18 42 5.6 44 44 SSW 23 37 29.77 1008 10 16 N/A
3:15 am 03:15 Cloudy with Light Rain 62 16.8 45 7.2 53 53 SSW 30 48 29.77 1008 10 16 N/A
3:35 am 03:35 Cloudy 60 15.3 48 9.1 67 67 SSW 18 30 29.77 1008 10 16 N/A
3:55 am 03:55 Cloudy with Light Rain 60 15.3 50 10.2 72 72 SSW 18 30 29.74 1007 10 16 N/A
4:15 am 04:15 Cloudy 60 15.3 50 10.2 72 72 SSW 18 30 29.74 1007 10 16 N/A
4:35 am 04:35 Cloudy with Drizzle 59 15 50 10 72 72 SSW 18 30 29.74 1007 10 16 N/A
4:55 am 04:55 Cloudy with Drizzle 60 15.3 50 10.1 71 71 SSW 16 26 29.74 1007 10 16 N/A
5:15 am 05:15 Cloudy 60 15.3 50 10 71 71 SSW 15 24 29.71 1006 10 16 N/A
5:35 am 05:35 Cloudy 60 15.3 49 9.7 69 69 SSW 13 20 29.71 1006 10 16 N/A
5:55 am 05:55 Cloudy with Drizzle 60 15.3 49 9.3 68 68 SSW 16 26 29.71 1006 10 16 N/A
6:15 am 06:15 Cloudy with Light Rain 60 15.3 50 9.8 70 70 SSW 16 26 29.71 1006 10 16 N/A
6:35 am 06:35 Cloudy with Light Rain 57 13.8 49 9.5 75 75 SSW 15 24 29.71 1006 10 16 N/A
6:55 am 06:55 Cloudy with Light Rain 57 13.8 51 10.5 81 81 SSW 14 22 29.71 1006 10 16 N/A
7:15 am 07:15 Cloudy with Rain 56 13.6 52 11 84 84 SSW 13 20 29.71 1006 7 11 N/A
7:35 am 07:35 Cloudy with Light Rain 55 12.7 50 10.2 85 85 SSW 13 20 29.71 1006 7 11 N/A
7:55 am 07:55 Cloudy with Light Rain 55 12.5 50 10 85 85 SSW 8 13 29.74 1007 7 11 N/A
8:15 am 08:15 Cloudy with Rain 55 12.5 50 10.1 85 85 S 8 13 29.74 1007 5 8 N/A
8:35 am 08:35 Cloudy with Light Rain 55 12.5 50 10 85 85 SSW 8 13 29.68 1005 7 11 N/A
8:55 am 08:55 Cloudy with Rain 56 13.1 51 10.6 85 85 S 10 17 29.68 1005 5 8 N/A
9:15 am 09:15 Cloudy with Light Rain 57 13.8 52 11.3 85 85 S 10 17 29.68 1005 7 11 N/A
9:35 am 09:35 Cloudy with Light Rain 57 13.8 52 11.3 85 85 SSW 8 13 29.65 1004 10 16 N/A
9:55 am 09:55 Cloudy with Rain 57 13.8 53 11.5 86 86 SSW 13 20 29.65 1004 5 8 N/A
10:15 am 10:15 Cloudy with Rain 57 13.8 53 11.6 87 87 SSW 12 19 29.65 1004 4 6 N/A
10:35 am 10:35 Cloudy with Heavy Rain 57 13.8 53 11.8 88 88 SSW 13 20 29.65 1004 3 5 N/A
10:55 am 10:55 Cloudy with Drizzle 57 13.8 54 12 89 89 SSW 13 20 29.65 1004 3 5 N/A
11:15 am 11:15 Cloudy with Drizzle 60 15.3 56 13.5 89 89 SSW 15 24 29.65 1004 3 4 N/A
11:35 am 11:35 Cloudy with Light Rain 60 15.3 56 13.5 89 89 SW 18 30 29.65 1004 4 6 N/A
11:55 am 11:55 Cloudy with Drizzle 60 15.3 56 13.3 88 88 SSW 22 35 29.65 1004 10 16 N/A
12:15 pm 12:15 Cloudy 61 16 56 13.5 85 85 SW 18 30 29.62 1003 10 16 N/A
12:35 pm 12:35 Cloudy 61 16 56 13.3 84 84 SSW 20 31 29.62 1003 10 16 N/A
12:55 pm 12:55 Cloudy 64 17.5 57 13.8 79 79 SW 20 31 29.62 1003 10 16 N/A
1:15 pm 13:15 Cloudy 64 18 56 13.5 75 75 SW 25 41 29.62 1003 10 16 N/A
1:35 pm 13:35 Cloudy 67 19.5 58 14.2 72 72 SW 28 44 29.59 1002 10 16 N/A
1:55 pm 13:55 Cloudy 69 20.8 59 15.1 70 70 SW 22 35 29.59 1002 10 16 N/A
2:15 pm 14:15 Cloudy 69 20.8 58 14.4 67 67 SSW 23 37 29.59 1002 10 16 N/A
2:35 pm 14:35 Mostly Cloudy 69 20.8 58 14.2 66 66 SSW 16 26 29.56 1001 10 16 N/A
2:55 pm 14:55 Mostly Cloudy 71 21.4 57 14.1 63 63 SSW 22 35 29.56 1001 10 16 N/A
3:15 pm 15:15 Mostly Cloudy 69 20.8 56 13.5 63 63 SSW 28 44 29.56 1001 10 16 N/A
3:35 pm 15:35 Cloudy 69 20.8 56 13.4 63 63 SSW 22 35 29.56 1001 10 16 N/A
3:55 pm 15:55 Cloudy 69 20.8 56 13.5 63 63 SSW 23 37 29.53 1000 10 16 N/A
4:15 pm 16:15 Cloudy 69 20.8 56 13.5 63 63 SSW 20 31 29.56 1001 10 16 N/A
4:35 pm 16:35 Cloudy 69 20.8 56 13.6 64 64 SW 18 30 29.56 1001 10 16 N/A
4:55 pm 16:55 Cloudy 69 20.8 56 13.6 64 64 SSW 20 31 29.56 1001 10 16 N/A
5:15 pm 17:15 Cloudy with Light Rain 69 20.8 57 13.8 64 64 S 16 26 29.53 1000 10 16 N/A
5:35 pm 17:35 Cloudy with Light Rain 69 20.8 58 14.2 66 66 SSW 24 39 29.53 1000 10 16 N/A
5:55 pm 17:55 Cloudy with Rain 67 19.7 59 14.9 74 74 SSW 31 50 29.53 1000 5 8 N/A
6:15 pm 18:15 Mostly Cloudy 64 18 56 13.5 75 75 S 18 30 29.50 999 10 16 N/A
6:35 pm 18:35 Sunny 64 18 56 13.6 76 76 SW 13 20 29.53 1000 10 16 N/A
6:55 pm 18:55 Sunny 64 18 55 12.7 71 71 SW 14 22 29.56 1001 10 16 N/A
7:15 pm 19:15 Partly Cloudy 63 17 54 12.3 74 74 SW 12 19 29.56 1001 10 16 N/A
7:35 pm 19:35 Partly Cloudy 62 16.6 55 12.7 78 78 WSW 9 15 29.59 1002 10 16 N/A
8:15 pm 20:15 Cloudy 62 16.6 55 13 79 79 N N/A 29.56 1001 10 16 N/A
8:35 pm 20:35 Cloudy 61 16.2 55 12.8 80 80 WSW 3 6 29.56 1001 10 16 N/A
8:55 pm 20:55 Mostly Cloudy 61 16 55 13 83 83 SW 5 7 29.56 1001 10 16 N/A
9:15 pm 21:15 Mostly Cloudy 61 16 55 13 83 83 W 5 7 29.59 1002 10 16 N/A
9:35 pm 21:35 Cloudy with Light Rain 61 16.1 56 13.2 83 83 SSW 10 17 29.59 1002 10 16 N/A
9:55 pm 21:55 Cloudy with Light Rain 61 16 56 13.1 83 83 WSW 6 9 29.59 1002 10 16 N/A
10:15 pm 22:15 Mostly Cloudy with Heavy Rain 60 15.6 56 13.2 86 86 N N/A 29.59 1002 7 11 N/A
10:35 pm 22:35 Partly Cloudy with Light Rain 60 15.3 56 13.1 87 87 N N/A 29.59 1002 10 16 N/A
10:55 pm 22:55 Mostly Cloudy with Light Rain 60 15.3 56 13.1 87 87 SW 3 6 29.59 1002 10 16 N/A
11:15 pm 23:15 Cloudy with Light Rain 60 15.3 56 13.2 87 87 N N/A 29.59 1002 10 16 N/A
11:35 pm 23:35 Cloudy 60 15.3 56 13.3 88 88 SW 3 6 29.62 1003 10 16 N/A
11:55 pm 23:55 Cloudy 60 15.3 56 13.5 89 89 WNW 3 6 29.62 1003 10 16 N/A

Powered by AerisWeather